TimeMST,TemperatureF,Dew PointF,Humidity,Sea Level PressureIn,VisibilityMPH,Wind Direction,Wind SpeedMPH,Gust SpeedMPH,PrecipitationIn,Events,Conditions,WindDirDegrees,DateUTC
12:53 AM,28.0,14.0,56,30.32,10.0,WSW,6.9,-,N/A,,Clear,250,2013-03-01 07:53:00
1:53 AM,26.1,14.0,60,30.34,10.0,WSW,8.1,-,N/A,,Mostly Cloudy,250,2013-03-01 08:53:00
2:53 AM,25.0,14.0,63,30.32,10.0,North,-9999.0,-,N/A,,Clear,0,2013-03-01 09:53:00
3:53 AM,21.0,12.0,68,30.34,10.0,SSW,6.9,-,N/A,,Clear,210,2013-03-01 10:53:00
4:53 AM,23.0,12.9,65,30.35,10.0,West,8.1,25.3,N/A,,Clear,280,2013-03-01 11:53:00
5:53 AM,18.0,10.9,74,30.38,10.0,West,5.8,-,N/A,,Clear,280,2013-03-01 12:53:00
6:53 AM,17.1,10.9,77,30.40,10.0,NNW,8.1,-,N/A,,Clear,340,2013-03-01 13:53:00
7:53 AM,21.9,12.9,68,30.40,10.0,NNE,4.6,-,N/A,,Clear,20,2013-03-01 14:53:00
8:53 AM,25.0,14.0,63,30.42,10.0,Calm,Calm,-,N/A,,Clear,0,2013-03-01 15:53:00
9:53 AM,28.0,16.0,61,30.41,10.0,Calm,Calm,-,N/A,,Clear,0,2013-03-01 16:53:00
10:53 AM,34.0,18.0,52,30.38,10.0,SW,4.6,-,N/A,,Clear,230,2013-03-01 17:53:00
11:53 AM,37.9,19.0,47,30.34,10.0,South,8.1,-,N/A,,Clear,170,2013-03-01 18:53:00
12:53 PM,44.1,21.9,42,30.31,10.0,Variable,3.5,-,N/A,,Clear,0,2013-03-01 19:53:00
1:53 PM,43.0,24.1,47,30.29,10.0,East,8.1,-,N/A,,Clear,80,2013-03-01 20:53:00
2:53 PM,45.0,25.0,46,30.30,10.0,East,4.6,-,N/A,,Clear,90,2013-03-01 21:53:00
3:53 PM,46.9,26.1,44,30.31,10.0,East,5.8,-,N/A,,Clear,80,2013-03-01 22:53:00
4:53 PM,44.1,26.1,49,30.32,10.0,ENE,6.9,-,N/A,,Clear,60,2013-03-01 23:53:00
5:53 PM,41.0,26.1,55,30.36,10.0,NE,4.6,-,N/A,,Clear,50,2013-03-02 00:53:00
6:53 PM,37.4,24.8,60,30.28,10.0,North,5.8,-,N/A,,Clear,360,2013-03-02 01:53:00
7:53 PM,39.9,24.1,53,30.37,10.0,WNW,16.1,-,N/A,,Clear,300,2013-03-02 02:53:00
8:53 PM,39.9,23.0,51,30.36,10.0,WNW,18.4,-,N/A,,Clear,300,2013-03-02 03:53:00
9:53 PM,39.0,23.0,53,30.37,10.0,WNW,18.4,-,N/A,,Clear,300,2013-03-02 04:53:00
10:53 PM,37.0,24.1,59,30.36,10.0,WNW,17.3,-,N/A,,Clear,290,2013-03-02 05:53:00
11:53 PM,39.0,23.0,53,30.33,10.0,WNW,18.4,-,N/A,,Clear,290,2013-03-02 06:53:00